User: anonymous   Login
Location: Eymir
(36.7333°N, 29.7833°E)
Time: 04:14:58
(UTC+00:00)
Language:

Cosmos 407 Rocket - Orbit

View from above orbital plane
View from above orbital plane
View from above satellite
View from above satellite

Ground track
Ground track

The orbit is defined by the following mean orbital elements,

1 05175U          26066.51494822 +.00000000 +00000-0 +94588-4 0 00004
2 05175  74.0463 104.0661 0030723 244.3877 115.4102 14.39474607    01
Epoch (UTC): 07 March 2026 12:21:31
Eccentricity: 0.0030723
inclination: 74.0463°
perigee height: 738 km
apogee height: 782 km
right ascension of ascending node: 104.0661°
argument of perigee: 244.3877°
revolutions per day: 14.39474607
mean anomaly at epoch: 115.4102°

The dashed part of the orbit path shows where the satellite is in the earth's shadow,  

DLR